Tracking 20621 objects as of 1-Apr-2020
HD Live streaming from Space Station
objects crossing your sky now

COSMOS 375 DEB

Track COSMOS 375 DEB now!
10-day predictions


NORAD ID: 4628
Int'l Code: 1970-091H
Perigee: 544.8 km
Apogee: 1,167.5 km
Inclination: 62.8 °
Period: 101.9 minutes
Semi major axis: 7227 km
RCS: 0.3645 m2 (medium)
Launch date: October 30, 1970
Source: Commonwealth of Independent States (former USSR) (CIS)
Launch site: TYURATAM MISSILE AND SPACE COMPLEX (TTMTR)

Note: This is SATELLITE DEBRIS
aabbcc
Your satellite tracking list
Your tracking list is empty




NASA's NSSDC Master Catalog

Two Line Element Set (TLE):
1  4628U 70091H   20091.82015478 +.00000207 +00000-0 +79525-4 0  9995
2  4628 062.7738 241.7532 0430766 239.5161 116.2697 14.13026824439461
Source of the keplerian elements: AFSPC